Home > Weather > Bend > Past weeks

Flag for U.S.A. Weather for the Past 2 Weeks in Bend, Oregon, U.S.A.

Now
50 °F

Overcast.


Feels Like: 47 °F
Forecast: 41 / 54 °F
Wind: 8 mph from South

Location: Roberts Field Airport

Current Time: Feb 13, 2016 at 4:26:05 PM

Latest Report: Feb 13, 2016 at 2:56 PM


Visibility: 10 mi

Pressure: 30.22 "Hg (26.46 "Hg at 1103m altitude)

Humidity: 36%

Dew point: 24 °F

Location of BendLocation

Historic Weather in Bend — Graph

°F

Bend Temperature Yesterday

Maximum temperature yesterday: 64 °F (at 1:56 PM)
Minimum temperature yesterday: 32 °F (at 10:56 PM)
Average temperature yesterday: 45 °F

High & Low Weather Summary for the Past Weeks

 TemperatureHumidityPressure
High67 °F (Feb 8, 2:56 PM)97% (Feb 11, 10:56 PM)30.60 "Hg (Feb 11, 10:56 PM)
Low20 °F (Jan 31, 2:56 AM)30% (Feb 9, 1:56 PM)29.85 "Hg (Jan 29, 2:56 PM)
Average38 °F71%30.26 "Hg
* Reported Jan 29 2:56 PM — Feb 13 2:56 PM, Bend, Weather by CustomWeather, © 2016

Note: Actual official high and low records may vary slightly from our data, if they occured in-between our weather recording intervals... More about our weather records

Advertising

Bend Weather History for the Previous 24 Hours

 ConditionsComfort  
Time TempWeatherWind HumidityBarometerVisibility
2:56 PM
Sat, Feb 13
50 °FOvercast.8 mph36%30.22 "Hg10 mi
1:56 PM50 °FOvercast.3 mph39%30.25 "Hg10 mi
12:56 PM50 °FSunny.6 mph38%30.28 "Hg10 mi
11:56 AM50 °FSunny.8 mph41%30.31 "Hg10 mi
10:56 AM48 °FSunny.12 mph43%30.34 "Hg10 mi
9:56 AM45 °FSunny.6 mph53%30.34 "Hg10 mi
8:56 AM40 °FSunny.5 mph68%30.35 "Hg10 mi
7:56 AM30 °FSunny.5 mph85%30.36 "Hg10 mi
6:56 AM30 °FClear.No wind85%30.36 "Hg10 mi
5:56 AM28 °FClear.3 mph89%30.34 "Hg10 mi
4:56 AM30 °FClear.3 mph89%30.33 "Hg10 mi
3:56 AM32 °FClear.No wind85%30.30 "Hg10 mi
2:56 AM33 °FPassing clouds.No wind88%30.29 "Hg10 mi
1:56 AM35 °FPassing clouds.No wind85%30.26 "Hg10 mi
12:56 AM33 °FPartly cloudy.No wind85%30.24 "Hg10 mi
11:56 PM
Fri, Feb 12
35 °FClear.3 mph82%30.23 "Hg10 mi
10:56 PM32 °FPassing clouds.No wind85%30.24 "Hg10 mi
9:56 PM35 °FPassing clouds.No wind85%30.23 "Hg10 mi
8:56 PM42 °FPassing clouds.No wind73%30.23 "Hg10 mi
7:56 PM45 °FOvercast.6 mph65%30.22 "Hg10 mi
6:56 PM46 °FMostly cloudy.6 mph68%30.22 "Hg10 mi
5:56 PM48 °FOvercast.9 mph63%30.19 "Hg10 mi
4:56 PM51 °FMostly cloudy.10 mph56%30.17 "Hg10 mi
Weather by CustomWeather, © 2016

See weather overviewHow to use our weather pages